TimePST,TemperatureF,Dew PointF,Humidity,Sea Level PressureIn,VisibilityMPH,Wind Direction,Wind SpeedMPH,Gust SpeedMPH,PrecipitationIn,Events,Conditions,WindDirDegrees,DateUTC
12:55 AM,57.0,55.0,93,30.07,0.2,East,5.8,-,N/A,Fog,Fog,80,2012-11-22 08:55:00
1:55 AM,55.9,54.0,93,30.07,0.2,ENE,4.6,-,0.01,Fog,Fog,70,2012-11-22 09:55:00
2:24 AM,55.4,53.6,94,30.04,2.0,ENE,4.6,-,N/A,,Overcast,70,2012-11-22 10:24:00
2:31 AM,55.4,53.6,94,30.04,8.0,ENE,5.8,-,N/A,,Overcast,60,2012-11-22 10:31:00
2:55 AM,53.1,50.0,89,30.07,10.0,NE,4.6,-,N/A,,Overcast,50,2012-11-22 10:55:00
3:55 AM,53.1,48.0,83,30.07,10.0,ENE,3.5,-,N/A,,Scattered Clouds,60,2012-11-22 11:55:00
4:55 AM,52.0,48.0,86,30.07,9.0,Calm,Calm,-,N/A,,Scattered Clouds,0,2012-11-22 12:55:00
5:45 AM,51.8,46.4,82,30.06,10.0,Calm,Calm,-,N/A,,Mostly Cloudy,0,2012-11-22 13:45:00
5:53 AM,50.0,46.4,87,30.06,10.0,Calm,Calm,-,N/A,,Scattered Clouds,0,2012-11-22 13:53:00
5:55 AM,51.1,46.0,83,30.09,10.0,Calm,Calm,-,N/A,,Mostly Cloudy,0,2012-11-22 13:55:00
6:09 AM,51.8,46.4,82,30.07,10.0,East,3.5,-,N/A,,Partly Cloudy,90,2012-11-22 14:09:00
6:55 AM,50.0,46.0,86,30.11,10.0,ENE,4.6,-,N/A,,Clear,70,2012-11-22 14:55:00
7:15 AM,50.0,46.4,87,30.09,10.0,Calm,Calm,-,N/A,,Scattered Clouds,0,2012-11-22 15:15:00
7:47 AM,51.8,48.2,88,30.10,1.5,Calm,Calm,-,N/A,,Scattered Clouds,0,2012-11-22 15:47:00
7:49 AM,51.8,48.2,88,30.10,0.8,Calm,Calm,-,N/A,,Mist,0,2012-11-22 15:49:00
7:55 AM,51.1,48.9,92,30.13,0.2,Calm,Calm,-,N/A,Fog,Fog,0,2012-11-22 15:55:00
8:36 AM,51.8,50.0,94,30.11,1.8,Calm,Calm,-,N/A,,Mostly Cloudy,0,2012-11-22 16:36:00
8:39 AM,51.8,50.0,94,30.11,3.0,Calm,Calm,-,N/A,,Mostly Cloudy,0,2012-11-22 16:39:00
8:51 AM,51.8,50.0,94,30.12,5.0,Calm,Calm,-,N/A,,Scattered Clouds,0,2012-11-22 16:51:00
8:55 AM,53.1,50.0,89,30.15,5.0,Calm,Calm,-,N/A,,Partly Cloudy,0,2012-11-22 16:55:00
9:55 AM,57.9,53.1,84,30.14,4.0,West,5.8,-,N/A,,Haze,260,2012-11-22 17:55:00
10:32 AM,60.8,53.6,77,30.11,5.0,West,5.8,-,N/A,,Haze,260,2012-11-22 18:32:00
10:55 AM,62.1,54.0,75,30.13,5.0,West,5.8,-,N/A,,Haze,260,2012-11-22 18:55:00
11:55 AM,64.9,54.0,68,30.11,5.0,West,6.9,-,N/A,,Haze,280,2012-11-22 19:55:00
12:55 PM,64.9,54.0,68,30.09,5.0,WSW,8.1,-,N/A,,Haze,240,2012-11-22 20:55:00
1:55 PM,64.0,54.0,70,30.08,5.0,SW,4.6,-,N/A,,Haze,230,2012-11-22 21:55:00
2:55 PM,64.0,54.0,70,30.08,5.0,SW,6.9,-,N/A,,Haze,230,2012-11-22 22:55:00
4:55 PM,60.1,55.0,83,30.09,8.0,WNW,4.6,-,N/A,,Clear,300,2012-11-23 00:55:00
5:55 PM,57.9,54.0,87,30.10,8.0,Calm,Calm,-,N/A,,Clear,0,2012-11-23 01:55:00
6:55 PM,57.9,54.0,87,30.11,7.0,NNW,3.5,-,N/A,,Clear,340,2012-11-23 02:55:00
7:55 PM,57.0,53.1,87,30.12,6.0,Calm,Calm,-,N/A,,Clear,0,2012-11-23 03:55:00
8:55 PM,53.1,50.0,89,30.12,7.0,Calm,Calm,-,N/A,,Clear,0,2012-11-23 04:55:00
9:55 PM,53.1,48.9,86,30.13,6.0,Calm,Calm,-,N/A,,Clear,0,2012-11-23 05:55:00
10:55 PM,52.0,48.0,86,30.14,4.0,North,3.5,-,N/A,,Clear,350,2012-11-23 06:55:00
11:55 PM,53.1,48.9,86,30.14,4.0,Calm,Calm,-,N/A,,Clear,0,2012-11-23 07:55:00